Dewpoint
47 47 47 47 46 45 47 47 49 49 48 48 50 48 47 46 46 46 45 45 45 46 47 47 46 46 45 46 47 47 47 37 33 27 25 29 40 45 46 50 53 53 53 50 47 45 36 26 27 28 22 22 17 18 22 20 17 14 13 10 9 9 8 9 9 8 9 8 8 9 11 12 11 11 12 13 12 12 11 16 19 33 42 57 60 60 62 63
47 48 48 48 48 47 47 48 48 48 48 48 48 48 48 47 46 46 46 45 45 45 45 45 46 47 46 45 47 47 42 36 30 25 27 49 47 47 50 52 51 50 52 45 44 42 36 23 25 26 20 18 18 15 22 17 16 10 9 9 8 9 9 10 9 9 9 8 10 8 10 11 11 10 11 10 10 10 10 15 13 28 40 57 58 61 62 63
47 48 48 48 48 49 49 48 48 48 48 48 47 48 48 48 47 47 46 46 45 45 45 45 45 46 46 45 47 46 39 31 27 24 47 50 49 49 48 48 50 49 45 44 43 42 37 23 24 24 19 14 18 11 19 15 16 9 9 6 7 8 8 10 9 8 10 10 9 9 9 9 11 10 11 9 9 8 8 10 12 16 23 54 59 60 62 63
46 48 48 49 49 49 48 48 48 47 48 47 47 47 47 48 47 47 48 48 47 46 45 45 45 45 46 46 46 41 34 29 19 39 45 51 49 47 47 47 49 44 42 45 45 44 39 29 26 24 19 14 14 11 17 14 15 10 8 5 5 6 7 7 7 9 9 9 9 9 9 8 9 10 10 9 8 7 7 7 8 15 20 47 58 60 61 63
46 48 48 48 48 48 48 48 47 47 47 48 47 47 48 48 47 46 47 47 46 46 46 46 45 45 44 47 46 38 31 17 30 44 48 50 46 46 46 47 46 34 42 47 43 39 36 30 23 22 19 16 12 13 15 12 15 10 9 6 4 7 4 6 9 8 8 9 8 8 7 7 9 9 9 8 7 6 6 6 8 8 12 36 57 59 60 62
48 48 48 48 48 48 48 48 48 47 47 47 47 48 48 48 47 48 47 47 47 47 47 46 46 45 45 47 41 35 29 -5 37 40 49 48 45 44 44 44 44 34 38 44 42 35 32 28 23 20 18 17 11 12 13 10 15 8 9 11 11 4 7 8 8 8 6 6 6 6 6 7 7 9 9 8 7 8 8 6 5 5 7 24 50 58 60 60
48 49 48 48 48 48 48 48 48 48 48 48 48 48 49 48 49 48 48 48 48 47 47 47 47 45 45 47 38 35 30 19 18 24 42 45 42 41 42 40 41 30 34 40 40 35 31 26 24 18 17 16 13 12 11 10 13 10 6 12 9 7 11 6 7 7 6 4 5 6 5 4 6 6 7 6 6 6 6 6 8 15 23 28 45 55 59 59
47 48 48 47 47 48 48 48 48 48 48 48 48 48 48 48 47 48 49 49 48 47 47 47 46 45 44 37 34 30 30 27 27 25 40 39 33 32 35 28 33 30 31 35 36 34 30 25 23 19 16 13 13 13 11 11 13 12 8 4 9 13 11 5 8 8 9 6 4 5 3 7 8 6 6 6 6 5 5 7 14 23 29 33 40 53 59 61
47 47 48 47 47 48 48 48 48 47 48 48 48 49 49 48 48 48 48 48 48 48 47 48 47 46 43 39 34 30 25 27 28 28 32 32 30 28 26 22 27 29 29 32 34 34 31 26 23 20 15 15 13 12 13 13 10 11 10 6 14 13 12 7 9 8 8 7 7 5 8 9 5 8 8 8 6 6 6 7 12 24 30 35 39 53 59 62
48 48 48 47 47 48 47 47 47 48 48 48 48 48 48 48 48 48 48 48 48 48 48 47 47 46 41 37 30 27 23 22 25 29 33 31 30 29 24 22 21 26 27 29 32 33 32 27 24 22 20 20 15 14 13 13 7 12 12 9 14 16 11 9 10 10 10 9 8 8 6 4 6 9 8 8 7 10 8 8 11 16 20 25 33 50 59 61
48 48 48 48 47 48 48 47 48 48 48 48 48 48 48 48 48 48 48 48 48 48 47 47 47 45 39 37 32 27 29 27 27 28 28 28 29 28 24 26 25 20 26 27 29 33 32 31 33 29 24 17 17 15 12 13 11 13 13 12 15 14 12 11 10 11 11 10 11 12 9 6 6 7 10 1 12 13 10 7 8 10 17 22 34 47 59 62
48 48 48 47 47 47 48 48 48 48 48 48 48 48 48 48 48 49 49 48 48 46 46 45 46 41 38 36 33 31 29 29 31 32 32 30 29 27 27 28 29 24 21 24 28 31 33 34 33 30 18 19 16 15 15 15 14 13 13 12 13 12 11 14 15 13 10 9 12 10 9 8 8 8 11 8 19 19 10 8 7 8 15 20 36 49 59 60
48 48 48 47 47 48 48 48 48 48 48 48 48 48 48 48 48 48 49 49 47 47 48 47 45 40 39 34 31 34 35 34 32 32 33 29 27 26 28 30 31 28 23 22 25 27 32 34 33 29 24 21 15 11 16 16 15 13 12 9 8 10 10 11 14 14 12 11 9 11 6 4 6 8 9 12 7 26 27 23 23 24 24 22 38 49 57 60
48 48 47 47 47 48 48 48 47 48 47 48 48 48 48 48 49 49 49 48 48 48 48 48 43 39 38 31 32 33 33 33 32 30 31 30 27 27 29 31 31 30 27 24 24 23 31 31 33 31 31 25 16 24 16 15 15 11 12 9 6 10 9 10 11 12 12 12 11 13 6 -0 -1 2 6 11 9 9 14 16 16 15 20 28 40 49 53 61
48 48 47 47 47 48 48 48 47 47 48 48 48 48 48 48 49 49 49 48 47 47 47 47 40 38 36 32 32 31 41 34 30 29 29 29 29 28 27 29 29 30 27 26 23 24 27 30 32 31 28 27 26 21 15 16 14 11 8 7 6 6 6 7 11 9 9 11 14 12 8 2 1 1 1 8 12 10 11 17 17 17 16 21 31 47 51 59
48 48 47 47 47 48 48 48 48 48 47 48 48 48 48 48 48 48 48 47 46 46 44 38 36 35 29 27 27 33 27 29 30 30 30 31 31 28 26 25 26 31 29 26 25 27 30 31 29 28 26 24 22 17 15 13 14 11 8 7 6 5 3 8 10 10 8 7 12 11 5 5 4 4 9 10 12 10 11 15 19 20 26 29 29 48 53 58
48 48 48 48 48 48 48 47 47 48 48 48 48 47 47 48 47 47 47 47 41 39 35 31 32 37 30 28 29 22 20 25 26 26 28 31 30 28 25 25 25 27 29 25 24 27 30 30 29 27 26 24 20 16 13 12 14 11 8 8 7 5 3 4 11 11 8 5 4 10 8 6 7 7 9 22 14 10 10 14 16 21 27 32 34 48 56 58
48 48 48 47 48 47 47 47 47 47 48 48 48 47 44 46 47 46 45 43 37 36 35 36 34 33 30 31 27 24 26 27 24 26 27 28 28 27 25 24 26 27 25 23 24 25 29 28 27 23 25 24 19 17 13 10 13 13 12 11 6 5 4 2 6 9 8 6 3 7 10 6 4 8 10 11 14 11 14 15 17 23 30 33 40 51 56 59
46 45 45 45 46 46 46 47 47 47 48 48 47 47 46 47 38 36 34 33 35 35 31 33 32 24 13 17 25 24 23 23 25 25 23 24 24 25 26 27 27 28 21 18 20 24 28 27 27 23 20 21 18 15 12 10 10 9 10 9 2 7 7 4 3 8 8 7 3 3 7 6 3 3 6 12 13 12 13 20 27 32 32 38 49 55 55 58
44 44 44 44 45 46 46 47 48 47 47 45 41 39 37 33 33 31 35 34 31 27 23 21 27 26 24 23 20 20 27 28 23 23 22 24 25 25 27 27 26 27 21 17 20 23 27 24 23 22 19 18 18 17 15 10 12 9 11 8 7 8 5 5 4 5 7 5 5 4 5 5 5 4 5 6 15 16 16 20 22 27 33 39 47 52 53 56
45 45 46 47 47 47 47 47 47 47 47 43 41 35 30 28 27 22 30 29 28 28 29 29 28 25 22 23 24 24 23 23 26 26 26 26 25 26 27 26 22 23 22 16 20 25 26 25 23 22 20 18 17 19 18 12 12 8 12 10 6 4 1 4 5 3 6 8 3 7 4 5 6 8 6 6 10 13 18 22 26 27 33 40 45 50 48 53
44 45 46 47 47 47 47 47 47 47 47 44 40 30 28 28 31 35 36 26 28 30 30 29 29 28 27 26 27 26 27 26 26 25 27 26 25 22 22 22 20 17 19 17 18 25 25 23 23 23 22 20 18 18 17 14 11 11 12 9 5 4 3 3 5 3 3 4 4 3 4 4 6 6 6 10 7 14 18 18 27 34 36 39 45 47 50 53
45 46 46 47 47 47 47 47 47 48 45 39 33 28 29 32 36 37 37 32 30 30 29 29 28 28 27 29 28 29 26 25 22 23 25 26 22 22 18 23 20 18 16 15 15 23 23 23 24 22 22 20 18 16 16 15 14 11 8 8 6 4 3 2 5 4 3 6 4 5 3 6 9 10 11 11 7 12 13 17 25 32 32 36 43 47 49 51
45 46 47 47 47 46 47 47 47 46 42 38 37 35 33 35 36 36 35 29 26 27 26 27 27 26 25 23 29 28 26 24 25 21 25 26 20 20 19 22 21 16 11 13 13 18 20 22 23 22 21 19 18 17 15 17 14 11 7 5 5 4 4 2 4 5 4 4 3 2 6 6 8 7 7 11 10 9 16 20 22 26 34 37 42 43 50 54
45 45 46 46 47 47 47 48 43 40 40 39 35 35 35 37 39 38 36 29 25 25 29 27 27 26 26 31 30 27 27 27 25 23 25 25 21 19 17 19 21 16 13 14 14 16 18 21 22 22 21 20 18 17 16 13 11 11 9 7 5 5 4 3 3 4 6 8 3 4 6 8 12 7 6 8 11 15 14 20 23 27 30 33 38 41 45 56
45 45 46 46 47 46 47 42 40 40 39 38 34 35 37 39 40 40 32 26 20 20 23 20 27 24 30 27 28 26 27 24 26 25 26 25 23 18 14 16 21 16 16 14 13 14 15 22 22 21 21 20 18 16 15 12 11 13 10 9 7 6 6 3 4 5 8 6 4 5 4 8 8 6 8 11 13 15 21 27 26 27 31 33 32 35 41 54
46 45 45 46 46 46 42 38 40 40 38 35 35 38 37 38 44 39 29 22 19 22 18 26 24 28 28 27 27 27 22 18 21 24 25 27 23 21 15 13 20 20 18 16 15 11 16 21 22 22 21 19 17 17 16 13 10 9 12 11 8 7 6 3 2 3 4 5 7 6 3 4 6 9 11 9 11 15 17 24 27 23 29 31 34 38 49 54
45 45 45 45 45 45 43 43 41 39 37 39 40 38 38 40 42 40 29 15 12 28 20 28 28 36 33 32 27 25 22 24 23 24 24 26 26 21 21 16 16 15 20 16 9 11 15 21 22 21 22 19 17 17 16 14 10 9 10 11 8 6 5 4 3 3 3 5 6 9 7 8 6 17 17 9 11 18 14 27 26 23 25 31 37 43 49 53
44 45 45 45 45 46 45 44 41 38 38 39 38 39 41 43 39 30 20 14 29 24 33 26 35 32 33 32 30 28 26 27 23 23 23 24 25 24 19 22 20 17 17 17 12 11 14 21 22 21 20 18 17 18 17 14 11 9 11 10 8 7 6 6 5 3 6 12 13 8 7 6 5 10 20 20 15 14 17 28 25 27 30 32 39 44 48 54
45 44 44 44 45 44 45 46 42 40 41 40 40 40 43 40 33 25 18 13 33 23 32 33 32 32 32 29 28 28 28 29 28 27 24 21 23 27 24 22 22 19 19 18 15 19 18 23 24 21 20 19 18 18 17 15 12 11 11 9 8 7 10 12 9 7 10 11 11 5 3 3 3 6 7 26 18 14 19 28 27 29 33 36 41 44 48 53
44 44 45 46 44 42 42 39 39 40 42 42 40 41 39 35 25 19 15 20 29 27 30 32 29 33 31 30 26 27 28 28 29 27 22 19 21 24 23 21 26 22 21 19 17 16 19 19 20 21 22 20 20 18 18 16 12 11 9 8 8 11 12 14 13 14 13 12 10 4 1 3 5 5 5 17 23 14 19 23 26 29 29 32 40 41 45 52
44 45 46 46 44 44 40 38 42 41 40 42 42 38 34 23 25 17 17 29 23 28 27 26 29 30 29 29 29 29 27 28 28 26 21 17 20 19 19 15 21 19 17 17 13 16 17 18 19 20 25 21 18 17 18 16 12 10 7 7 10 9 16 11 12 12 9 8 9 3 4 7 6 12 11 11 17 19 20 18 22 25 26 35 40 45 48 53
44 45 46 44 44 44 42 41 41 43 44 43 39 36 28 22 17 19 21 26 22 28 26 33 30 29 29 29 27 27 29 25 26 24 21 17 18 18 18 15 17 19 13 19 15 15 16 17 18 19 20 22 20 16 15 14 12 10 6 8 9 8 9 11 8 11 10 8 8 7 7 6 9 7 9 16 20 20 19 21 22 24 29 36 42 47 50 53
44 46 46 46 44 41 45 45 43 42 43 41 36 31 27 21 19 24 24 25 26 31 32 29 30 30 29 25 26 27 25 25 25 21 20 17 17 19 16 17 19 16 14 18 14 13 16 16 17 18 17 20 19 17 16 14 12 10 5 4 10 11 10 12 6 9 9 7 8 7 7 10 6 9 12 14 17 21 20 16 22 25 24 34 38 43 48 55
45 47 48 48 47 43 45 43 44 45 43 38 33 28 22 20 22 23 25 27 28 31 30 32 30 28 27 23 28 26 27 25 24 21 19 17 18 18 16 15 21 16 17 16 19 18 14 16 17 19 19 20 19 18 17 14 12 10 7 3 7 10 12 8 11 11 12 11 12 11 11 12 9 19 20 17 12 16 22 25 34 38 33 30 34 42 49 54
44 45 47 42 41 45 44 44 45 45 40 36 28 24 21 23 22 26 26 33 31 30 30 31 29 26 19 24 25 24 27 27 22 21 18 15 16 18 17 17 19 19 20 16 20 14 13 16 16 17 18 18 18 19 18 16 14 12 8 7 4 6 4 16 19 21 20 14 11 14 13 14 15 15 14 17 15 13 21 26 31 33 35 44 49 52 54 55
41 44 41 43 38 43 44 44 44 44 39 34 28 23 25 27 28 28 32 31 31 33 30 25 24 25 24 19 23 23 25 25 20 19 17 16 15 16 18 18 19 18 19 19 18 12 15 14 16 16 15 18 19 19 18 16 14 11 10 7 5 6 7 15 7 12 10 9 12 13 10 7 6 8 11 18 21 17 19 20 25 32 34 37 41 47 51 54
41 41 43 40 40 44 45 44 44 41 37 33 27 29 28 27 32 33 35 34 34 33 29 27 26 30 24 23 21 22 26 24 19 19 18 14 16 16 18 17 19 18 17 19 20 16 15 14 16 15 12 16 18 18 17 16 16 11 9 10 7 12 14 13 11 11 8 9 7 13 11 8 2 16 20 19 19 21 19 20 22 30 36 39 42 44 50 55
41 40 37 40 41 43 45 44 43 38 35 29 28 25 28 29 29 32 34 35 35 33 29 29 27 30 29 25 24 24 24 22 21 20 20 15 17 17 19 20 20 19 18 19 20 20 17 16 14 16 15 17 17 17 18 15 15 15 12 8 8 13 14 11 13 15 9 6 9 6 8 8 8 11 19 23 22 23 25 25 24 29 37 42 43 47 54 56
38 37 34 42 42 45 44 45 40 37 34 28 27 28 29 29 30 33 34 36 34 33 31 29 33 29 31 29 30 24 23 26 21 19 20 19 18 17 16 21 19 19 19 19 19 16 19 24 14 14 15 16 15 16 16 15 15 15 13 10 8 17 9 8 15 8 9 7 6 6 10 13 16 9 13 14 22 27 28 34 41 39 37 39 42 52 56 57
40 36 35 44 42 44 44 41 36 32 30 31 31 29 29 30 33 34 35 36 37 38 34 32 33 30 31 29 29 29 26 24 19 20 21 16 20 16 17 20 21 19 20 20 19 19 19 20 17 14 12 13 14 17 15 14 14 15 13 11 7 11 10 9 10 7 8 7 9 6 7 17 18 10 15 13 16 20 30 33 36 39 39 42 51 56 57 58
34 29 34 43 44 44 40 35 31 35 33 29 27 30 31 35 34 33 34 35 37 36 38 36 36 34 32 31 31 30 26 21 19 20 22 17 20 15 18 22 22 20 18 20 19 20 27 24 19 13 12 12 14 15 17 15 15 14 12 10 8 12 13 12 11 11 7 4 10 13 10 16 41 38 37 32 36 31 32 26 34 46 52 55 56 57 58 58
34 33 42 43 44 42 39 34 31 31 30 31 32 32 33 33 34 35 34 34 34 36 36 36 35 32 34 32 32 30 28 23 21 20 20 17 18 18 18 22 22 19 18 19 17 20 24 23 17 12 12 12 13 15 17 15 15 15 14 12 7 9 10 10 12 16 9 10 8 9 10 16 41 44 47 46 47 43 45 47 50 51 54 55 56 57 56 56
35 35 36 44 44 40 37 28 28 29 30 31 32 32 32 33 34 33 33 34 34 36 35 35 35 37 34 35 34 32 30 26 19 24 23 25 21 16 18 22 21 19 18 21 20 24 21 21 15 13 12 11 14 12 13 14 14 15 15 16 10 7 8 12 7 24 11 14 7 9 3 17 38 51 48 47 43 41 43 48 51 52 54 55 54 55 55 56
36 37 36 37 40 39 33 31 30 30 30 31 31 30 30 32 34 34 34 34 35 36 36 35 35 35 34 36 34 33 32 31 27 19 22 29 23 21 18 20 20 20 18 19 24 20 20 21 16 12 12 11 11 10 12 14 15 17 16 14 13 8 14 17 13 15 12 17 9 12 8 21 36 46 46 48 48 48 50 51 51 53 54 54 54 54 55 55
31 26 31 33 34 35 35 34 33 31 30 31 30 32 32 32 33 34 35 35 37 36 35 36 36 35 35 36 35 33 31 31 29 27 26 26 23 22 27 19 20 19 26 26 24 24 23 24 21 17 13 11 14 14 13 13 15 14 13 14 14 11 8 16 17 11 9 17 18 16 17 21 25 26 33 48 51 51 52 52 52 52 53 54 55 55 55 55
35 29 30 28 32 36 30 32 30 31 31 32 29 31 32 31 32 32 35 33 36 35 35 36 36 34 34 34 34 33 36 33 34 33 32 32 30 30 32 24 19 23 29 26 29 27 26 20 22 24 18 11 11 11 12 12 11 11 11 12 11 13 14 19 14 11 15 17 7 18 23 24 20 19 30 45 51 51 52 52 53 52 53 53 54 54 53 55
28 32 34 35 30 27 28 28 30 31 31 31 31 33 32 30 31 30 33 36 37 37 34 35 34 33 34 34 35 33 35 33 34 31 32 34 33 32 28 22 18 26 27 21 25 29 30 22 22 25 20 12 9 11 11 10 9 10 9 12 13 12 16 20 19 18 21 16 17 30 32 27 23 26 37 47 50 52 51 52 53 53 52 53 53 54 54 54
33 33 33 35 30 30 31 31 32 31 31 31 32 32 30 30 30 32 33 32 34 34 34 31 33 32 33 34 35 35 34 31 30 33 33 35 34 29 23 18 17 17 20 24 24 30 29 23 25 23 23 18 14 10 10 10 9 9 12 11 11 14 16 18 20 20 21 26 23 30 30 30 25 34 42 51 52 51 51 52 52 52 52 52 53 54 54 54
31 31 31 34 33 31 31 32 32 31 29 31 28 30 30 30 30 31 33 32 30 31 34 33 33 33 34 34 35 35 36 36 33 33 35 36 34 33 24 27 19 18 18 25 29 31 29 20 29 25 21 24 22 11 9 10 10 11 8 8 10 14 13 13 19 23 25 24 24 26 27 26 38 47 50 52 52 51 52 52 51 53 52 52 53 54 54 55
36 36 36 32 30 30 31 32 30 29 27 28 28 30 30 30 31 32 31 34 33 32 34 33 34 34 35 35 36 37 39 38 38 37 37 38 34 37 35 34 35 22 20 25 29 32 30 25 26 25 19 20 18 12 11 10 13 11 11 12 11 14 18 17 18 23 23 23 26 24 21 21 45 47 49 52 51 51 51 52 52 52 53 52 52 53 54 55
35 36 36 35 29 31 29 30 30 27 25 29 30 29 29 29 30 31 31 33 36 36 36 35 35 34 35 35 35 38 40 40 39 40 39 39 39 38 35 36 36 38 23 26 28 27 29 24 22 21 17 19 21 13 15 15 16 14 18 17 16 16 16 15 13 18 24 28 24 18 15 42 46 47 49 50 51 50 51 51 52 53 53 52 52 53 55 55